Zurück zum Katalog

STARLINK-37296

AktivKommunikationSSO
NORAD 68672·PAYLOAD·🇺🇸 United States

Gestartet Apr 11, 2026 von Vandenberg Space Force Base

Loading…

Nächste Überflüge (nächste 24 Stunden)

TLE

AktuellSource: CelesTrak SupGP

Epoche: Sep 15, 2026, 02:41 UTC

1 68672C 26077L   26258.11229167  .00084574  00000+0  26222-2 0  2584
2 68672  97.2845 128.0678 0001659  98.6355   2.3656 15.33434499    13

Verfolge STARLINK-37296 in Echtzeit mit AllMySat

Download on the App Store